Total_Precipitation_Accumulation
0.02 0.05 0.23 0.43 0.80 1.53 1.50 0.92 0.43 0.24 0.23 0.29 0.36 0.41 0.42 0.39 0.52 0.90 0.43 0.19 0.08 0.04 0.04 0.09 0.12 0.12 0.14 0.18 0.19 0.22 0.22 0.19 0.16 0.16 0.17 0.21 0.20 0.18 0.18 0.23 0.23 0.21 0.24 0.22 0.22 0.22 0.22 0.24 0.23
0.02 0.09 0.27 0.47 1.13 1.70 1.25 1.06 0.36 0.20 0.19 0.30 0.36 0.40 0.40 0.40 0.25 0.27 0.29 0.23 0.13 0.08 0.04 0.04 0.10 0.13 0.13 0.16 0.20 0.22 0.20 0.18 0.16 0.20 0.20 0.20 0.17 0.17 0.17 0.19 0.21 0.22 0.22 0.21 0.19 0.17 0.17 0.19 0.20
0.04 0.14 0.28 0.46 0.88 1.05 0.69 0.55 0.23 0.17 0.21 0.29 0.35 0.36 0.38 0.46 0.29 0.26 0.27 0.20 0.15 0.08 0.06 0.06 0.09 0.11 0.13 0.15 0.18 0.21 0.20 0.17 0.18 0.24 0.25 0.24 0.18 0.20 0.21 0.21 0.19 0.19 0.19 0.17 0.16 0.15 0.14 0.17 0.20
0.05 0.13 0.25 0.38 0.43 0.50 0.41 0.28 0.17 0.15 0.20 0.27 0.31 0.32 0.42 0.38 0.25 0.32 0.35 0.34 0.18 0.11 0.07 0.10 0.11 0.12 0.13 0.14 0.17 0.22 0.25 0.21 0.22 0.23 0.25 0.26 0.24 0.27 0.26 0.19 0.19 0.20 0.20 0.17 0.15 0.15 0.15 0.17 0.21
0.07 0.16 0.26 0.28 0.26 0.35 0.35 0.25 0.19 0.13 0.14 0.23 0.35 0.49 0.53 0.39 0.27 0.41 0.42 0.43 0.26 0.15 0.09 0.11 0.15 0.14 0.13 0.13 0.16 0.18 0.22 0.24 0.26 0.26 0.24 0.23 0.22 0.25 0.26 0.20 0.18 0.18 0.18 0.16 0.16 0.17 0.21 0.23 0.25
0.09 0.15 0.17 0.17 0.18 0.26 0.25 0.18 0.17 0.16 0.21 0.24 0.37 0.61 0.67 0.52 0.37 0.39 0.48 0.40 0.35 0.26 0.17 0.17 0.20 0.18 0.17 0.16 0.17 0.18 0.19 0.20 0.20 0.21 0.21 0.19 0.19 0.25 0.30 0.28 0.21 0.18 0.16 0.17 0.18 0.19 0.23 0.26 0.27
0.05 0.07 0.07 0.09 0.12 0.18 0.20 0.15 0.15 0.13 0.16 0.24 0.32 0.65 0.84 0.87 0.63 0.50 0.59 0.61 0.61 0.43 0.27 0.25 0.24 0.22 0.23 0.28 0.24 0.23 0.22 0.22 0.24 0.25 0.24 0.23 0.23 0.24 0.27 0.32 0.29 0.22 0.23 0.24 0.23 0.22 0.23 0.25 0.27
0.02 0.02 0.03 0.05 0.06 0.11 0.13 0.14 0.12 0.14 0.15 0.21 0.30 0.52 0.84 0.79 0.54 0.59 0.88 0.92 1.02 0.82 0.56 0.41 0.32 0.31 0.27 0.25 0.28 0.29 0.29 0.28 0.27 0.27 0.26 0.27 0.27 0.28 0.31 0.31 0.35 0.33 0.37 0.38 0.33 0.30 0.30 0.30 0.30
0.01 0.02 0.03 0.02 0.02 0.05 0.07 0.09 0.10 0.11 0.14 0.26 0.38 0.54 0.70 0.60 0.54 0.64 1.15 1.19 1.17 0.99 0.78 0.63 0.49 0.41 0.36 0.29 0.31 0.39 0.40 0.39 0.36 0.41 0.38 0.40 0.50 0.51 0.57 0.53 0.60 0.60 0.59 0.60 0.55 0.55 0.56 0.53 0.44
0.01 0.01 0.01 0.01 0.01 0.02 0.04 0.08 0.10 0.11 0.23 0.57 0.80 0.81 0.80 0.70 0.76 0.94 1.25 1.11 1.15 1.16 0.98 0.85 0.68 0.53 0.46 0.45 0.56 0.71 0.62 0.61 0.64 0.77 0.77 0.89 1.07 1.04 0.71 0.74 0.99 1.10 1.16 1.13 1.08 1.07 0.91 0.78 0.72
0.00 0.01 0.00 0.00 0.01 0.01 0.02 0.06 0.10 0.14 0.46 0.89 1.09 0.96 0.92 0.99 1.05 1.27 1.56 1.58 1.46 1.54 1.33 1.11 0.94 0.77 0.68 0.81 0.74 0.82 0.95 1.03 1.05 1.10 1.11 1.24 1.20 1.02 0.86 0.95 1.21 1.46 1.54 1.44 1.62 1.66 1.30 1.36 1.57
0.00 0.00 0.00 0.00 0.00 0.01 0.02 0.03 0.09 0.21 0.45 0.64 0.79 0.95 1.07 1.21 1.46 1.66 1.69 1.85 1.80 1.76 1.64 1.58 1.35 1.17 1.22 1.17 0.92 0.88 0.92 1.01 1.14 1.38 1.35 1.42 1.58 1.49 1.41 1.44 1.49 1.63 1.84 2.06 2.05 2.19 2.03 1.95 1.84
0.00 0.00 0.00 0.00 0.01 0.02 0.03 0.05 0.15 0.30 0.41 0.51 0.82 1.15 1.40 1.42 1.71 1.96 2.01 2.26 2.07 1.94 1.89 1.86 1.81 1.65 1.70 1.50 1.30 1.15 1.24 1.25 1.31 1.43 1.54 1.51 1.72 1.87 1.86 1.79 1.75 1.69 1.79 1.96 2.12 2.18 2.49 2.59 2.24
0.00 0.00 0.00 0.01 0.01 0.03 0.06 0.10 0.21 0.35 0.51 0.68 0.89 1.18 1.47 1.71 1.91 1.99 2.31 2.53 2.51 2.34 2.35 2.16 2.10 2.10 2.05 1.94 1.90 1.81 1.61 1.61 1.58 1.53 1.53 1.57 1.77 1.98 2.08 1.96 1.92 1.79 1.77 1.94 2.12 2.29 2.72 2.71 2.54
0.00 0.01 0.03 0.03 0.04 0.06 0.09 0.24 0.36 0.48 0.59 0.72 0.91 1.08 1.39 1.88 2.11 2.13 2.36 2.51 2.48 2.77 2.78 2.76 2.70 2.82 2.74 2.55 2.41 2.22 2.01 1.86 1.83 1.86 1.87 1.78 1.81 1.95 1.95 1.79 1.72 1.76 1.90 2.05 2.12 2.27 2.55 2.28 2.26
0.01 0.08 0.10 0.11 0.09 0.09 0.14 0.41 0.48 0.52 0.60 0.79 0.98 1.14 1.40 1.73 2.04 2.16 2.43 2.62 2.71 3.01 3.13 3.26 3.29 3.26 3.10 3.04 2.94 2.70 2.46 2.24 2.08 2.00 2.03 1.89 1.83 1.83 1.95 1.77 1.64 1.95 2.05 2.12 2.32 2.43 2.43 2.36 2.32
0.04 0.06 0.08 0.11 0.09 0.08 0.13 0.35 0.45 0.58 0.79 1.00 1.17 1.26 1.36 1.64 1.93 2.20 2.55 2.90 3.20 3.47 3.68 3.80 3.82 3.67 3.41 3.38 3.31 3.14 2.93 2.56 2.24 2.08 2.00 1.87 1.82 1.90 2.13 2.06 2.11 2.28 2.32 2.31 2.22 2.48 2.46 2.36 2.31
0.03 0.05 0.07 0.10 0.09 0.09 0.19 0.40 0.47 0.61 0.86 0.97 1.24 1.36 1.45 1.56 1.99 2.39 2.61 3.02 3.49 3.94 4.30 4.11 4.01 4.13 3.98 3.78 3.58 3.26 2.80 2.42 2.27 2.19 2.01 1.93 1.93 2.02 2.31 2.14 2.10 2.24 2.35 2.35 2.32 2.29 2.30 2.11 2.07
0.03 0.06 0.09 0.12 0.10 0.12 0.23 0.49 0.69 0.80 1.01 1.05 1.10 1.25 1.36 1.49 1.80 2.18 2.47 3.02 3.61 3.95 4.34 4.50 4.46 4.29 4.02 3.59 3.22 2.95 2.72 2.56 2.31 2.15 2.05 1.96 1.88 1.96 2.23 2.11 2.18 2.16 2.14 2.15 2.20 2.22 2.06 1.72 1.90
0.04 0.07 0.09 0.14 0.13 0.17 0.32 0.54 0.79 0.81 0.90 0.94 0.87 0.95 1.13 1.48 1.72 2.20 2.44 2.65 3.13 3.64 4.08 4.35 4.48 4.30 3.89 3.43 3.12 2.93 2.89 2.56 2.24 2.19 2.17 2.00 2.03 2.01 2.03 2.09 2.05 2.06 2.11 2.04 2.00 2.07 1.89 1.56 1.68
0.06 0.07 0.09 0.10 0.12 0.24 0.35 0.72 0.97 0.86 0.83 0.87 0.87 0.94 1.11 1.57 2.01 2.23 2.35 2.48 2.73 3.16 3.46 3.56 3.69 3.63 3.40 3.35 3.21 3.05 3.00 2.64 2.46 2.44 2.40 2.23 2.20 2.14 2.12 2.07 1.93 1.80 1.70 1.68 1.74 1.80 1.77 1.59 1.52
0.08 0.06 0.05 0.07 0.14 0.33 0.37 0.82 1.25 1.07 0.91 0.95 1.02 0.99 1.28 1.61 1.63 1.71 1.96 2.24 2.47 2.70 3.03 3.27 3.30 3.22 3.08 3.09 2.97 2.76 2.51 2.39 2.48 2.67 2.60 2.33 2.11 1.94 1.73 1.60 1.60 1.56 1.51 1.48 1.35 1.42 1.49 1.41 1.30
0.06 0.05 0.06 0.09 0.15 0.31 0.39 0.60 1.09 1.12 1.16 1.04 1.01 1.12 1.35 1.37 1.32 1.35 1.55 1.87 1.99 2.27 2.54 2.83 3.08 3.14 3.02 2.98 2.82 2.74 2.56 2.48 2.47 2.40 2.29 2.08 1.85 1.60 1.33 1.24 1.27 1.26 1.24 1.21 1.15 1.18 1.13 1.11 1.11
0.05 0.06 0.12 0.18 0.31 0.65 0.50 0.51 0.93 1.09 0.99 0.88 0.94 0.98 1.12 1.11 1.15 1.27 1.40 1.65 1.75 1.86 1.96 2.13 2.39 2.62 2.69 2.67 2.58 2.48 2.34 2.25 2.15 1.94 1.75 1.59 1.45 1.25 1.02 0.93 0.99 1.03 1.10 1.07 1.02 1.03 0.98 1.03 1.15
0.06 0.09 0.39 0.74 0.97 1.02 0.55 0.59 1.04 0.89 0.71 0.72 0.85 0.86 0.81 0.81 0.87 1.08 1.18 1.26 1.38 1.47 1.50 1.63 1.86 2.15 2.22 2.16 2.14 2.12 2.02 1.95 1.82 1.71 1.56 1.38 1.21 1.00 0.92 0.88 0.93 0.97 1.02 0.94 0.92 0.90 0.97 1.08 1.17
0.08 0.09 0.34 0.62 0.74 0.81 0.66 1.00 1.44 0.95 0.73 0.77 0.78 0.74 0.70 0.68 0.64 0.76 0.96 1.11 1.15 1.18 1.25 1.39 1.63 1.79 1.83 1.73 1.79 1.84 1.78 1.75 1.62 1.62 1.42 1.22 1.08 0.99 1.03 0.95 0.88 0.84 0.86 0.81 0.88 0.85 0.89 1.00 1.09
0.09 0.08 0.14 0.28 0.36 0.59 0.82 1.10 1.14 0.69 0.61 0.70 0.71 0.68 0.70 0.69 0.62 0.60 0.68 0.83 0.90 0.93 1.01 1.11 1.39 1.59 1.64 1.58 1.62 1.66 1.67 1.58 1.43 1.34 1.23 1.07 1.05 1.01 1.11 1.05 0.98 0.90 0.89 0.92 0.99 1.02 1.08 1.22 1.25
0.10 0.11 0.16 0.22 0.35 0.57 0.77 1.06 1.18 0.80 0.64 0.48 0.43 0.46 0.41 0.40 0.39 0.37 0.40 0.47 0.58 0.72 0.87 0.98 1.07 1.24 1.35 1.34 1.34 1.36 1.47 1.41 1.30 1.25 1.13 0.96 0.90 0.91 1.04 1.09 1.03 0.98 0.94 0.97 1.07 1.19 1.35 1.45 1.46
0.13 0.11 0.13 0.17 0.20 0.38 0.76 0.97 0.72 0.57 0.51 0.46 0.41 0.44 0.37 0.30 0.29 0.30 0.35 0.42 0.52 0.59 0.73 0.88 0.93 1.03 1.12 1.14 1.18 1.20 1.19 1.23 1.21 1.11 0.99 0.94 0.92 0.89 0.89 0.94 0.99 0.97 0.93 0.95 1.03 1.08 1.28 1.38 1.39
0.14 0.11 0.13 0.17 0.17 0.23 0.42 0.61 0.44 0.42 0.44 0.39 0.39 0.42 0.42 0.41 0.37 0.34 0.36 0.45 0.52 0.59 0.67 0.72 0.77 0.86 0.99 1.13 1.29 1.36 1.30 1.24 1.16 1.02 0.94 0.94 0.93 0.90 0.89 0.89 0.88 0.83 0.82 0.89 0.95 1.04 1.15 1.22 1.23